Time,TemperatureF,DewpointF,PressureIn,WindDirection,WindDirectionDegrees,WindSpeedMPH,WindSpeedGustMPH,Humidity,HourlyPrecipIn,Conditions,Clouds,dailyrainin,SolarRadiationWatts/m^2,SoftwareType,DateUTC
2013-03-23 00:22:00,25.0,23.0,-100.00,SSE,166,1.0,2.0,91,0.00,,,0.05,0.000000,,2013-03-23 06:22:00,
2013-03-23 00:32:00,25.0,23.0,-100.00,SSE,166,1.0,2.0,91,0.00,,,0.05,0.000000,,2013-03-23 06:32:00,
2013-03-23 00:42:00,25.0,23.0,-100.00,SSE,166,1.0,2.0,91,0.00,,,0.05,0.000000,,2013-03-23 06:42:00,
2013-03-23 00:52:00,25.0,23.0,-100.00,SSE,166,1.0,2.0,91,0.00,,,0.05,0.000000,,2013-03-23 06:52:00,
2013-03-23 01:22:00,23.0,21.0,-100.00,NW,319,1.0,6.0,92,0.00,,,0.05,0.000000,,2013-03-23 07:22:00,
2013-03-23 01:32:00,23.0,21.0,-100.00,NW,319,1.0,6.0,92,0.00,,,0.05,0.000000,,2013-03-23 07:32:00,
2013-03-23 01:42:00,23.0,21.0,-100.00,NW,319,1.0,6.0,92,0.00,,,0.05,0.000000,,2013-03-23 07:42:00,
2013-03-23 01:52:00,23.0,21.0,-100.00,NW,319,1.0,6.0,92,0.00,,,0.05,0.000000,,2013-03-23 07:52:00,
2013-03-23 02:22:00,21.0,17.0,-100.00,South,183,3.0,6.0,83,0.00,,,0.05,0.000000,,2013-03-23 08:22:00,
2013-03-23 02:32:00,21.0,17.0,-100.00,South,183,3.0,6.0,83,0.00,,,0.05,0.000000,,2013-03-23 08:32:00,
2013-03-23 02:42:00,21.0,17.0,-100.00,South,183,3.0,6.0,83,0.00,,,0.05,0.000000,,2013-03-23 08:42:00,
2013-03-23 02:52:00,21.0,17.0,-100.00,South,183,3.0,6.0,83,0.00,,,0.05,0.000000,,2013-03-23 08:52:00,
2013-03-23 03:22:00,19.0,17.0,-100.00,SSW,197,3.0,9.0,90,0.00,,,0.05,0.000000,,2013-03-23 09:22:00,
2013-03-23 03:33:00,19.0,17.0,-100.00,SSW,197,3.0,9.0,90,0.00,,,0.05,0.000000,,2013-03-23 09:33:00,
2013-03-23 03:42:00,19.0,17.0,-100.00,SSW,197,3.0,9.0,90,0.00,,,0.05,0.000000,,2013-03-23 09:42:00,
2013-03-23 03:53:00,19.0,17.0,-100.00,SSW,197,3.0,9.0,90,0.00,,,0.05,0.000000,,2013-03-23 09:53:00,
2013-03-23 04:23:00,17.0,15.0,-100.00,South,180,6.0,11.0,91,0.00,,,0.05,0.000000,,2013-03-23 10:23:00,
2013-03-23 04:34:00,17.0,15.0,-100.00,South,180,6.0,11.0,91,0.00,,,0.05,0.000000,,2013-03-23 10:34:00,
2013-03-23 04:42:00,17.0,15.0,-100.00,South,180,6.0,11.0,91,0.00,,,0.05,0.000000,,2013-03-23 10:42:00,
2013-03-23 04:52:00,17.0,15.0,-100.00,South,180,6.0,11.0,91,0.00,,,0.05,0.000000,,2013-03-23 10:52:00,
2013-03-23 05:22:00,16.0,13.0,-100.00,South,179,8.0,12.0,88,0.00,,,0.05,0.000000,,2013-03-23 11:22:00,
2013-03-23 05:32:00,16.0,13.0,-100.00,South,179,8.0,12.0,88,0.00,,,0.05,0.000000,,2013-03-23 11:32:00,
2013-03-23 05:42:00,16.0,13.0,-100.00,South,179,8.0,12.0,88,0.00,,,0.05,0.000000,,2013-03-23 11:42:00,
2013-03-23 05:51:00,16.0,13.0,-100.00,South,179,8.0,12.0,88,0.00,,,0.05,0.000000,,2013-03-23 11:51:00,
2013-03-23 06:22:00,16.0,13.0,-100.00,South,183,2.0,11.0,86,0.00,,,0.05,0.000000,,2013-03-23 12:22:00,
2013-03-23 06:33:00,16.0,13.0,-100.00,South,183,2.0,11.0,86,0.00,,,0.05,0.000000,,2013-03-23 12:33:00,
2013-03-23 06:42:00,16.0,13.0,-100.00,South,183,2.0,11.0,86,0.00,,,0.05,0.000000,,2013-03-23 12:42:00,
2013-03-23 06:52:00,16.0,13.0,-100.00,South,183,2.0,11.0,86,0.00,,,0.05,0.000000,,2013-03-23 12:52:00,
2013-03-23 07:23:00,15.0,11.0,-100.00,SSW,193,5.0,13.0,85,0.00,,,0.05,1.000000,,2013-03-23 13:23:00,
2013-03-23 07:33:00,15.0,11.0,-100.00,SSW,193,5.0,13.0,85,0.00,,,0.05,1.000000,,2013-03-23 13:33:00,
2013-03-23 07:42:00,15.0,11.0,-100.00,SSW,193,5.0,13.0,85,0.00,,,0.05,1.000000,,2013-03-23 13:42:00,
2013-03-23 07:52:00,15.0,11.0,-100.00,SSW,193,5.0,13.0,85,0.00,,,0.05,1.000000,,2013-03-23 13:52:00,
2013-03-23 08:22:00,16.0,11.0,-100.00,South,180,3.0,11.0,81,0.00,,,0.05,13.000000,,2013-03-23 14:22:00,
2013-03-23 08:32:00,16.0,11.0,-100.00,South,180,3.0,11.0,81,0.00,,,0.05,13.000000,,2013-03-23 14:32:00,
2013-03-23 08:43:00,16.0,11.0,-100.00,South,180,3.0,11.0,81,0.00,,,0.05,13.000000,,2013-03-23 14:43:00,
2013-03-23 08:52:00,16.0,11.0,-100.00,South,180,3.0,11.0,81,0.00,,,0.05,13.000000,,2013-03-23 14:52:00,
2013-03-23 09:22:00,17.0,11.0,-100.00,South,181,4.0,6.0,78,0.00,,,0.05,56.000000,,2013-03-23 15:22:00,
2013-03-23 09:33:00,17.0,11.0,-100.00,South,181,4.0,6.0,78,0.00,,,0.05,56.000000,,2013-03-23 15:33:00,
2013-03-23 09:43:00,17.0,11.0,-100.00,South,181,4.0,6.0,78,0.00,,,0.05,56.000000,,2013-03-23 15:43:00,
2013-03-23 09:52:00,17.0,11.0,-100.00,South,181,4.0,6.0,78,0.00,,,0.05,56.000000,,2013-03-23 15:52:00,
2013-03-23 10:23:00,20.0,12.0,-100.00,SW,220,4.0,8.0,70,0.00,,,0.03,167.000000,,2013-03-23 16:23:00,
2013-03-23 10:33:00,20.0,12.0,-100.00,SW,220,4.0,8.0,70,0.00,,,0.03,167.000000,,2013-03-23 16:33:00,
2013-03-23 10:43:00,20.0,12.0,-100.00,SW,220,4.0,8.0,70,0.00,,,0.03,167.000000,,2013-03-23 16:43:00,
2013-03-23 10:53:00,20.0,12.0,-100.00,SW,220,4.0,8.0,70,0.00,,,0.03,167.000000,,2013-03-23 16:53:00,
2013-03-23 11:22:00,26.0,11.0,-100.00,NW,320,6.0,11.0,53,0.03,,,0.03,373.000000,,2013-03-23 17:22:00,
2013-03-23 11:33:00,26.0,11.0,-100.00,NW,320,6.0,11.0,53,0.03,,,0.03,373.000000,,2013-03-23 17:33:00,
2013-03-23 11:42:00,26.0,11.0,-100.00,NW,320,6.0,11.0,53,0.03,,,0.03,373.000000,,2013-03-23 17:42:00,
2013-03-23 11:52:00,26.0,11.0,-100.00,NW,320,6.0,11.0,53,0.03,,,0.03,373.000000,,2013-03-23 17:52:00,
2013-03-23 12:22:00,27.0,13.0,-100.00,NW,318,7.0,14.0,54,0.03,,,0.06,662.000000,,2013-03-23 18:22:00,
2013-03-23 12:32:00,27.0,13.0,-100.00,NW,318,7.0,14.0,54,0.03,,,0.06,662.000000,,2013-03-23 18:32:00,
2013-03-23 12:42:00,27.0,13.0,-100.00,NW,318,7.0,14.0,54,0.03,,,0.06,662.000000,,2013-03-23 18:42:00,
2013-03-23 12:52:00,27.0,13.0,-100.00,NW,318,7.0,14.0,54,0.03,,,0.06,662.000000,,2013-03-23 18:52:00,
2013-03-23 13:22:00,28.0,13.0,-100.00,WNW,300,8.0,17.0,53,0.00,,,0.06,715.000000,,2013-03-23 19:22:00,
2013-03-23 13:32:00,28.0,13.0,-100.00,WNW,300,8.0,17.0,53,0.00,,,0.06,715.000000,,2013-03-23 19:32:00,
2013-03-23 13:42:00,28.0,13.0,-100.00,WNW,300,8.0,17.0,53,0.00,,,0.06,715.000000,,2013-03-23 19:42:00,
2013-03-23 13:52:00,28.0,13.0,-100.00,WNW,300,8.0,17.0,53,0.00,,,0.06,715.000000,,2013-03-23 19:52:00,
2013-03-23 14:22:00,30.0,12.0,-100.00,WNW,303,9.0,18.0,47,0.00,,,0.06,738.000000,,2013-03-23 20:22:00,
2013-03-23 14:32:00,30.0,12.0,-100.00,WNW,303,9.0,18.0,47,0.00,,,0.06,738.000000,,2013-03-23 20:32:00,
2013-03-23 14:42:00,30.0,12.0,-100.00,WNW,303,9.0,18.0,47,0.00,,,0.06,738.000000,,2013-03-23 20:42:00,
2013-03-23 14:52:00,30.0,12.0,-100.00,WNW,303,9.0,18.0,47,0.00,,,0.06,738.000000,,2013-03-23 20:52:00,
2013-03-23 15:22:00,32.0,12.0,-100.00,NW,306,9.0,20.0,42,0.00,,,-99.99,704.000000,,2013-03-23 21:22:00,
2013-03-23 15:33:00,32.0,12.0,-100.00,NW,306,9.0,20.0,42,0.00,,,-99.99,704.000000,,2013-03-23 21:33:00,
2013-03-23 15:43:00,32.0,12.0,-100.00,NW,306,9.0,20.0,42,0.00,,,-99.99,704.000000,,2013-03-23 21:43:00,
2013-03-23 15:53:00,32.0,12.0,-100.00,NW,306,9.0,20.0,42,0.00,,,-99.99,704.000000,,2013-03-23 21:53:00,
2013-03-23 16:23:00,31.0,8.0,-100.00,WNW,295,8.0,21.0,38,0.00,,,0.06,589.000000,,2013-03-23 22:23:00,
2013-03-23 16:33:00,31.0,8.0,-100.00,WNW,295,8.0,21.0,38,0.00,,,0.06,589.000000,,2013-03-23 22:33:00,
2013-03-23 16:42:00,31.0,8.0,-100.00,WNW,295,8.0,21.0,38,0.00,,,0.06,589.000000,,2013-03-23 22:42:00,
2013-03-23 16:52:00,31.0,8.0,-100.00,WNW,295,8.0,21.0,38,0.00,,,0.06,589.000000,,2013-03-23 22:52:00,
2013-03-23 17:23:00,30.0,9.0,-100.00,WNW,298,7.0,19.0,41,0.00,,,0.06,308.000000,,2013-03-23 23:23:00,
2013-03-23 17:33:00,30.0,9.0,-100.00,WNW,298,7.0,19.0,41,0.00,,,0.06,308.000000,,2013-03-23 23:33:00,
2013-03-23 17:43:00,30.0,9.0,-100.00,WNW,298,7.0,19.0,41,0.00,,,0.06,308.000000,,2013-03-23 23:43:00,
2013-03-23 17:52:00,30.0,9.0,-100.00,WNW,298,7.0,19.0,41,0.00,,,0.06,308.000000,,2013-03-23 23:52:00,
2013-03-23 18:22:00,28.0,8.0,-100.00,WNW,303,6.0,17.0,42,0.00,,,0.06,282.000000,,2013-03-24 00:22:00,
2013-03-23 18:32:00,28.0,8.0,-100.00,WNW,303,6.0,17.0,42,0.00,,,0.06,282.000000,,2013-03-24 00:32:00,
2013-03-23 18:42:00,28.0,8.0,-100.00,WNW,303,6.0,17.0,42,0.00,,,0.06,282.000000,,2013-03-24 00:42:00,
2013-03-23 18:52:00,28.0,8.0,-100.00,WNW,303,6.0,17.0,42,0.00,,,0.06,282.000000,,2013-03-24 00:52:00,
2013-03-23 19:22:00,25.0,7.0,-100.00,WSW,256,3.0,14.0,45,0.00,,,0.06,98.000000,,2013-03-24 01:22:00,
2013-03-23 19:32:00,25.0,7.0,-100.00,WSW,256,3.0,14.0,45,0.00,,,0.06,98.000000,,2013-03-24 01:32:00,
2013-03-23 19:42:00,25.0,7.0,-100.00,WSW,256,3.0,14.0,45,0.00,,,0.06,98.000000,,2013-03-24 01:42:00,
2013-03-23 19:52:00,25.0,7.0,-100.00,WSW,256,3.0,14.0,45,0.00,,,0.06,98.000000,,2013-03-24 01:52:00,
2013-03-23 20:22:00,21.0,10.0,-100.00,SSW,209,2.0,11.0,62,0.00,,,0.06,4.000000,,2013-03-24 02:22:00,
2013-03-23 20:32:00,21.0,10.0,-100.00,SSW,209,2.0,11.0,62,0.00,,,0.06,4.000000,,2013-03-24 02:32:00,
2013-03-23 20:42:00,21.0,10.0,-100.00,SSW,209,2.0,11.0,62,0.00,,,0.06,4.000000,,2013-03-24 02:42:00,
2013-03-23 20:52:00,21.0,10.0,-100.00,SSW,209,2.0,11.0,62,0.00,,,0.06,4.000000,,2013-03-24 02:52:00,
2013-03-23 21:22:00,20.0,9.0,-100.00,WNW,286,2.0,10.0,63,0.00,,,0.06,0.000000,,2013-03-24 03:22:00,
2013-03-23 21:33:00,20.0,9.0,-100.00,WNW,286,2.0,10.0,63,0.00,,,0.06,0.000000,,2013-03-24 03:33:00,
2013-03-23 21:42:00,20.0,9.0,-100.00,WNW,286,2.0,10.0,63,0.00,,,0.06,0.000000,,2013-03-24 03:42:00,
2013-03-23 21:52:00,20.0,9.0,-100.00,WNW,286,2.0,10.0,63,0.00,,,0.06,0.000000,,2013-03-24 03:52:00,
2013-03-23 22:22:00,17.0,9.0,-100.00,North,359,1.0,5.0,69,0.00,,,0.06,0.000000,,2013-03-24 04:22:00,
2013-03-23 22:33:00,17.0,9.0,-100.00,North,359,1.0,5.0,69,0.00,,,0.06,0.000000,,2013-03-24 04:33:00,
2013-03-23 22:42:00,17.0,9.0,-100.00,North,359,1.0,5.0,69,0.00,,,0.06,0.000000,,2013-03-24 04:42:00,
2013-03-23 22:52:00,17.0,9.0,-100.00,North,359,1.0,5.0,69,0.00,,,0.06,0.000000,,2013-03-24 04:52:00,
2013-03-23 23:22:00,17.0,10.0,-100.00,SW,215,3.0,4.0,74,0.00,,,0.06,0.000000,,2013-03-24 05:22:00,
2013-03-23 23:32:00,17.0,10.0,-100.00,SW,215,3.0,4.0,74,0.00,,,0.06,0.000000,,2013-03-24 05:32:00,
2013-03-23 23:42:00,17.0,10.0,-100.00,SW,215,3.0,4.0,74,0.00,,,0.06,0.000000,,2013-03-24 05:42:00,
2013-03-23 23:52:00,17.0,10.0,-100.00,SW,215,3.0,4.0,74,0.00,,,0.06,0.000000,,2013-03-24 05:52:00,